Precipitable_Water
1.58 1.50 1.50 1.49 1.46 1.42 1.40 1.37 1.36 1.41 1.45 1.50 1.49 1.49 1.51 1.52 1.52 1.53 1.58 1.59 1.67 1.69 1.68 1.67 1.68 1.68 1.67 1.67 1.65 1.66 1.68 1.69 1.71 1.68 1.62 1.57 1.57 1.53 1.54 1.55 1.50 1.49 1.50 1.51 1.57 1.56 1.52 1.47 1.47 1.52 1.56 1.51 1.54 1.58 1.60 1.60 1.58 1.55 1.53 1.49 1.43 1.47 1.46 1.44 1.36 1.35 1.50 1.64 1.58 1.56 1.60 1.61 1.47 1.51 1.38 1.33 1.29 1.31 1.36 1.36 1.32 1.28 1.27 1.28 1.29
1.64 1.57 1.52 1.52 1.47 1.44 1.41 1.41 1.39 1.39 1.40 1.46 1.47 1.48 1.48 1.51 1.56 1.58 1.53 1.60 1.71 1.72 1.70 1.69 1.71 1.72 1.68 1.67 1.67 1.65 1.65 1.66 1.69 1.68 1.63 1.59 1.57 1.60 1.56 1.54 1.52 1.52 1.57 1.55 1.58 1.59 1.56 1.49 1.45 1.47 1.54 1.51 1.52 1.50 1.49 1.45 1.43 1.39 1.39 1.40 1.40 1.45 1.61 1.49 1.43 1.34 1.28 1.47 1.49 1.59 1.55 1.58 1.31 1.40 1.26 1.14 1.13 1.19 1.18 1.20 1.24 1.27 1.28 1.30 1.29
1.70 1.65 1.55 1.50 1.48 1.48 1.46 1.41 1.39 1.37 1.36 1.40 1.43 1.47 1.50 1.55 1.61 1.58 1.58 1.62 1.71 1.72 1.71 1.72 1.73 1.77 1.75 1.74 1.73 1.69 1.67 1.65 1.66 1.65 1.64 1.63 1.59 1.59 1.59 1.56 1.53 1.51 1.53 1.58 1.61 1.64 1.59 1.52 1.48 1.52 1.58 1.56 1.56 1.51 1.50 1.46 1.47 1.42 1.42 1.49 1.48 1.55 1.61 1.59 1.46 1.36 1.35 1.36 1.47 1.43 1.41 1.36 1.24 1.16 1.16 1.10 1.06 1.10 1.06 1.11 1.12 1.19 1.27 1.27 1.25
1.73 1.69 1.59 1.51 1.50 1.49 1.46 1.45 1.40 1.36 1.33 1.37 1.40 1.47 1.51 1.55 1.62 1.61 1.65 1.68 1.68 1.73 1.74 1.74 1.75 1.75 1.74 1.73 1.74 1.74 1.72 1.69 1.67 1.69 1.70 1.70 1.67 1.63 1.63 1.62 1.59 1.57 1.56 1.57 1.60 1.60 1.58 1.54 1.52 1.55 1.59 1.54 1.53 1.53 1.54 1.54 1.51 1.51 1.52 1.56 1.58 1.59 1.61 1.62 1.61 1.49 1.43 1.30 1.38 1.31 1.30 1.16 1.13 1.15 1.11 1.05 1.01 1.01 1.05 1.08 1.16 1.17 1.20 1.23 1.23
1.75 1.71 1.62 1.52 1.50 1.47 1.46 1.47 1.44 1.39 1.33 1.35 1.38 1.46 1.51 1.55 1.61 1.63 1.67 1.69 1.71 1.72 1.74 1.75 1.72 1.70 1.69 1.71 1.73 1.72 1.73 1.73 1.71 1.72 1.75 1.77 1.75 1.71 1.69 1.69 1.66 1.63 1.62 1.63 1.65 1.62 1.56 1.52 1.56 1.59 1.61 1.56 1.57 1.58 1.61 1.58 1.59 1.57 1.54 1.56 1.56 1.60 1.64 1.64 1.61 1.57 1.44 1.30 1.24 1.26 1.24 1.17 1.14 1.10 1.08 0.96 1.00 1.05 1.10 1.11 1.15 1.18 1.24 1.31 1.32
1.80 1.73 1.67 1.55 1.49 1.46 1.45 1.46 1.45 1.43 1.38 1.35 1.36 1.41 1.47 1.53 1.56 1.62 1.67 1.69 1.75 1.80 1.78 1.76 1.71 1.68 1.71 1.75 1.76 1.74 1.74 1.75 1.74 1.75 1.75 1.77 1.76 1.73 1.70 1.69 1.69 1.69 1.67 1.66 1.67 1.68 1.63 1.61 1.61 1.60 1.58 1.54 1.56 1.61 1.65 1.63 1.63 1.58 1.52 1.51 1.53 1.57 1.55 1.53 1.51 1.45 1.35 1.24 1.16 1.08 1.15 1.07 1.03 1.01 1.08 1.11 1.06 1.02 1.04 1.13 1.20 1.26 1.26 1.26 1.33
1.88 1.77 1.70 1.59 1.50 1.47 1.47 1.45 1.46 1.46 1.45 1.42 1.41 1.40 1.41 1.46 1.51 1.56 1.65 1.67 1.72 1.80 1.83 1.80 1.77 1.73 1.73 1.76 1.76 1.75 1.75 1.77 1.77 1.77 1.77 1.75 1.74 1.72 1.70 1.67 1.64 1.66 1.67 1.67 1.69 1.71 1.71 1.68 1.65 1.64 1.58 1.56 1.54 1.56 1.58 1.57 1.56 1.52 1.53 1.53 1.55 1.49 1.45 1.40 1.36 1.30 1.25 1.18 1.17 1.14 1.06 1.11 1.05 0.93 1.10 1.19 1.19 1.16 1.06 1.03 1.01 1.20 1.30 1.29 1.25
1.94 1.88 1.83 1.67 1.54 1.50 1.51 1.53 1.52 1.51 1.51 1.51 1.48 1.44 1.42 1.44 1.47 1.54 1.60 1.60 1.61 1.68 1.76 1.76 1.76 1.75 1.74 1.74 1.75 1.75 1.75 1.76 1.78 1.79 1.79 1.77 1.74 1.70 1.69 1.65 1.62 1.62 1.63 1.65 1.66 1.69 1.72 1.71 1.68 1.65 1.61 1.60 1.58 1.58 1.57 1.52 1.54 1.51 1.56 1.56 1.55 1.50 1.44 1.41 1.39 1.34 1.29 1.25 1.19 1.12 1.11 1.02 1.03 1.10 1.17 1.19 1.13 1.15 1.22 1.11 0.97 1.05 1.18 1.30 1.35
1.96 1.85 1.88 1.82 1.66 1.58 1.59 1.60 1.60 1.58 1.57 1.55 1.53 1.51 1.49 1.48 1.52 1.56 1.58 1.59 1.60 1.61 1.64 1.69 1.70 1.71 1.73 1.74 1.74 1.75 1.75 1.76 1.79 1.78 1.76 1.77 1.79 1.75 1.71 1.66 1.62 1.59 1.59 1.60 1.64 1.66 1.69 1.70 1.70 1.71 1.71 1.71 1.73 1.73 1.72 1.73 1.67 1.58 1.60 1.59 1.55 1.51 1.48 1.47 1.44 1.39 1.35 1.31 1.25 1.24 1.14 1.07 1.07 1.07 1.10 1.12 1.11 1.11 1.22 1.25 1.15 1.19 1.24 1.23 1.35
2.01 1.90 1.85 1.85 1.79 1.71 1.68 1.66 1.63 1.63 1.63 1.62 1.60 1.57 1.55 1.54 1.55 1.56 1.58 1.59 1.60 1.61 1.61 1.66 1.69 1.70 1.71 1.72 1.74 1.75 1.78 1.84 1.87 1.87 1.83 1.79 1.78 1.78 1.77 1.74 1.70 1.66 1.62 1.59 1.60 1.62 1.64 1.66 1.69 1.71 1.72 1.74 1.77 1.82 1.86 1.86 1.83 1.76 1.70 1.67 1.64 1.59 1.54 1.47 1.44 1.43 1.39 1.32 1.26 1.20 1.13 1.11 1.14 1.19 1.17 1.23 1.28 1.32 1.29 1.29 1.18 1.20 1.19 1.19 1.29
2.01 1.91 1.85 1.88 1.85 1.79 1.72 1.69 1.72 1.71 1.70 1.70 1.69 1.66 1.62 1.61 1.58 1.58 1.59 1.60 1.60 1.61 1.63 1.63 1.65 1.70 1.72 1.72 1.72 1.74 1.78 1.83 1.88 1.91 1.92 1.91 1.89 1.83 1.78 1.74 1.74 1.72 1.69 1.64 1.58 1.60 1.64 1.67 1.69 1.70 1.73 1.73 1.75 1.78 1.80 1.79 1.79 1.80 1.81 1.80 1.76 1.66 1.55 1.49 1.48 1.50 1.44 1.36 1.33 1.26 1.22 1.19 1.24 1.30 1.27 1.27 1.30 1.28 1.27 1.30 1.29 1.26 1.18 1.10 1.05
2.00 1.96 1.89 1.86 1.83 1.81 1.83 1.79 1.70 1.76 1.90 1.84 1.78 1.74 1.72 1.72 1.68 1.63 1.60 1.61 1.66 1.69 1.66 1.64 1.65 1.67 1.70 1.72 1.72 1.74 1.77 1.81 1.83 1.85 1.89 1.94 1.97 1.95 1.91 1.85 1.82 1.80 1.80 1.78 1.74 1.69 1.67 1.69 1.71 1.72 1.72 1.74 1.76 1.75 1.74 1.72 1.68 1.68 1.70 1.71 1.70 1.72 1.73 1.66 1.57 1.51 1.49 1.42 1.35 1.34 1.32 1.29 1.29 1.31 1.30 1.28 1.27 1.29 1.32 1.32 1.33 1.31 1.27 1.25 1.29
2.07 1.99 1.98 1.96 1.93 1.90 1.90 1.88 1.82 1.81 2.00 2.03 1.90 1.82 1.75 1.80 1.81 1.80 1.75 1.75 1.72 1.69 1.69 1.70 1.68 1.70 1.70 1.69 1.71 1.75 1.77 1.82 1.82 1.81 1.82 1.87 1.95 1.99 1.98 1.95 1.90 1.87 1.89 1.89 1.87 1.84 1.81 1.79 1.78 1.78 1.78 1.77 1.79 1.72 1.67 1.64 1.67 1.67 1.65 1.65 1.68 1.72 1.75 1.78 1.78 1.71 1.64 1.50 1.41 1.38 1.42 1.43 1.36 1.37 1.40 1.38 1.41 1.27 1.29 1.28 1.34 1.38 1.41 1.40 1.47
2.12 2.11 2.09 2.04 2.04 2.01 1.95 1.91 1.86 1.84 1.90 2.03 2.07 1.95 1.86 1.80 1.84 1.95 2.00 1.93 1.82 1.75 1.74 1.72 1.73 1.72 1.73 1.73 1.75 1.79 1.81 1.85 1.86 1.85 1.84 1.85 1.90 1.95 1.97 1.96 1.92 1.90 1.91 1.93 1.95 1.92 1.89 1.84 1.81 1.80 1.83 1.81 1.79 1.74 1.68 1.67 1.68 1.66 1.65 1.66 1.67 1.72 1.74 1.77 1.77 1.72 1.64 1.52 1.46 1.41 1.56 1.70 1.71 1.64 1.64 1.59 1.41 1.30 1.27 1.26 1.36 1.36 1.40 1.44 1.58
2.03 2.03 2.07 2.08 2.07 2.03 1.98 1.94 1.89 1.88 1.89 1.95 2.03 2.05 1.93 1.94 1.92 1.91 1.95 1.88 1.79 1.73 1.73 1.72 1.74 1.74 1.74 1.74 1.74 1.77 1.85 1.90 1.90 1.90 1.91 1.91 1.92 1.93 1.93 1.95 1.95 1.92 1.95 1.99 2.01 2.00 1.98 1.95 1.90 1.85 1.81 1.77 1.79 1.78 1.72 1.69 1.66 1.63 1.59 1.53 1.50 1.52 1.55 1.57 1.59 1.60 1.60 1.64 1.69 1.79 1.74 1.87 1.98 1.97 1.88 1.80 1.58 1.48 1.46 1.43 1.46 1.49 1.54 1.63 1.62
2.05 1.99 2.02 2.08 2.06 2.00 1.94 1.91 1.89 1.86 1.90 1.98 2.05 2.08 2.07 1.96 1.94 1.93 1.90 1.96 1.98 1.92 1.85 1.76 1.67 1.68 1.73 1.73 1.69 1.67 1.74 1.81 1.84 1.86 1.90 1.93 1.96 1.95 1.93 1.92 1.93 1.94 1.95 1.99 2.01 2.03 2.05 2.02 1.97 1.89 1.82 1.78 1.77 1.75 1.73 1.70 1.63 1.57 1.51 1.52 1.50 1.50 1.50 1.57 1.62 1.64 1.66 1.66 1.66 1.73 1.80 1.94 1.95 1.91 1.89 1.81 1.69 1.64 1.64 1.65 1.64 1.59 1.51 1.41 1.37
2.00 2.03 2.02 2.03 2.04 2.05 2.02 1.96 1.92 1.89 1.89 1.90 1.95 2.00 2.03 1.98 1.98 1.99 1.95 1.98 1.97 1.93 1.86 1.83 1.79 1.75 1.77 1.79 1.73 1.69 1.72 1.79 1.81 1.81 1.80 1.83 1.88 1.92 1.94 1.94 1.91 1.90 1.95 2.02 2.04 2.04 2.06 2.06 2.02 1.95 1.87 1.81 1.80 1.76 1.75 1.75 1.66 1.59 1.54 1.51 1.55 1.55 1.55 1.61 1.61 1.59 1.58 1.59 1.60 1.60 1.65 1.77 1.83 1.87 1.88 1.83 1.73 1.74 1.69 1.57 1.54 1.60 1.48 1.37 1.41
1.98 2.03 2.02 2.04 2.06 2.08 2.09 2.07 2.02 2.02 2.02 2.01 2.03 2.03 2.07 2.07 1.98 1.97 1.93 1.93 1.90 1.90 1.94 1.93 1.95 1.96 1.93 1.90 1.90 1.85 1.87 1.93 1.93 1.90 1.87 1.84 1.82 1.81 1.86 1.90 1.90 1.90 1.92 2.01 2.05 2.04 2.05 2.05 2.04 2.00 1.94 1.89 1.87 1.84 1.83 1.84 1.73 1.67 1.61 1.56 1.52 1.50 1.51 1.54 1.53 1.55 1.58 1.60 1.59 1.60 1.64 1.67 1.67 1.68 1.72 1.77 1.80 1.81 1.68 1.53 1.66 1.68 1.58 1.55 1.46
1.96 1.99 2.01 2.04 2.08 2.06 2.07 2.06 2.03 2.01 2.03 2.05 2.08 2.03 1.98 1.95 1.96 1.97 1.95 1.94 1.91 1.97 2.00 1.97 1.97 2.00 1.99 1.97 1.99 1.99 2.03 2.09 2.10 2.06 2.03 2.01 1.97 1.93 1.88 1.85 1.82 1.85 1.89 1.93 2.02 2.03 2.04 2.10 2.05 2.04 2.02 1.97 1.93 1.90 1.89 1.87 1.79 1.74 1.67 1.57 1.48 1.44 1.49 1.55 1.53 1.52 1.55 1.55 1.56 1.64 1.66 1.69 1.70 1.69 1.72 1.79 1.83 1.86 1.85 1.79 1.78 1.68 1.55 1.54 1.53
1.97 1.97 2.03 2.07 2.07 2.04 2.03 2.01 2.01 1.99 1.99 2.01 2.04 2.02 2.03 2.00 1.97 1.96 1.98 1.99 1.99 2.03 2.04 2.00 1.95 1.97 2.02 2.03 2.05 2.10 2.06 2.07 2.11 2.12 2.13 2.13 2.12 2.10 2.07 1.97 1.88 1.86 1.89 1.92 1.97 2.05 2.07 2.06 2.07 2.09 2.12 2.07 1.99 1.92 1.89 1.87 1.80 1.77 1.75 1.66 1.61 1.56 1.69 1.66 1.67 1.66 1.59 1.56 1.59 1.65 1.65 1.69 1.71 1.74 1.80 1.84 1.86 1.88 1.86 1.85 1.81 1.75 1.65 1.62 1.62
1.86 1.90 1.94 1.92 1.92 1.95 1.97 1.97 1.97 1.98 2.00 1.98 2.00 1.99 2.00 1.98 1.97 1.96 1.94 1.95 1.95 1.95 1.95 1.96 1.97 1.99 2.04 2.06 2.07 2.09 2.12 2.10 2.11 2.12 2.14 2.15 2.15 2.12 2.10 2.08 2.08 2.06 2.03 1.98 1.97 1.94 1.98 2.03 2.08 2.13 2.15 2.12 2.03 1.95 1.89 1.85 1.82 1.84 1.88 1.88 1.90 1.94 1.95 1.82 1.73 1.65 1.56 1.59 1.61 1.60 1.60 1.64 1.68 1.71 1.74 1.78 1.81 1.85 1.85 1.84 1.82 1.78 1.70 1.61 1.55
1.75 1.76 1.78 1.81 1.84 1.86 1.86 1.91 1.94 1.95 1.95 1.95 1.93 1.91 1.95 2.00 1.99 2.00 2.01 1.98 1.95 1.93 1.96 1.99 1.99 1.99 2.03 2.07 2.10 2.11 2.16 2.16 2.15 2.16 2.16 2.15 2.14 2.12 2.11 2.16 2.21 2.16 2.14 2.08 2.09 2.08 2.07 2.06 2.10 2.15 2.14 2.11 2.07 2.02 1.95 1.87 1.87 1.91 1.94 1.99 2.00 1.97 1.93 1.89 1.83 1.74 1.66 1.60 1.56 1.54 1.55 1.57 1.59 1.61 1.64 1.67 1.70 1.71 1.73 1.74 1.73 1.71 1.67 1.58 1.41
1.65 1.67 1.71 1.74 1.74 1.76 1.79 1.83 1.84 1.86 1.87 1.89 1.87 1.84 1.88 1.90 1.94 1.97 1.97 1.96 1.94 1.92 1.92 1.93 1.92 1.91 1.93 1.96 2.02 2.06 2.08 2.10 2.12 2.13 2.13 2.13 2.14 2.15 2.15 2.14 2.17 2.18 2.14 2.08 2.09 2.15 2.17 2.15 2.18 2.20 2.16 2.14 2.11 2.04 1.90 1.88 1.96 1.96 1.92 1.88 1.88 1.90 1.90 1.89 1.88 1.80 1.69 1.60 1.54 1.48 1.48 1.50 1.50 1.51 1.51 1.52 1.56 1.60 1.61 1.62 1.61 1.57 1.50 1.45 1.39
1.47 1.51 1.56 1.61 1.64 1.64 1.67 1.69 1.70 1.70 1.70 1.71 1.72 1.71 1.73 1.77 1.81 1.85 1.88 1.88 1.86 1.85 1.88 1.88 1.88 1.87 1.85 1.88 1.92 1.96 1.99 2.03 2.04 2.04 2.05 2.05 2.05 2.06 2.08 2.11 2.15 2.18 2.21 2.11 2.13 2.13 2.17 2.18 2.17 2.16 2.16 2.12 2.06 1.93 1.84 1.87 1.88 1.86 1.85 1.84 1.85 1.87 1.89 1.86 1.78 1.71 1.65 1.58 1.51 1.46 1.45 1.47 1.48 1.46 1.47 1.51 1.52 1.53 1.53 1.52 1.48 1.42 1.34 1.28 1.26
1.27 1.27 1.30 1.35 1.39 1.43 1.47 1.50 1.51 1.53 1.56 1.59 1.58 1.60 1.62 1.64 1.64 1.71 1.75 1.78 1.79 1.76 1.74 1.74 1.74 1.77 1.79 1.77 1.80 1.87 1.87 1.93 1.94 1.94 1.94 1.95 1.96 1.96 1.97 1.97 1.97 1.99 1.99 2.04 2.07 2.08 2.12 2.15 2.12 2.05 2.06 2.01 1.92 1.81 1.80 1.79 1.80 1.81 1.81 1.82 1.83 1.83 1.81 1.74 1.69 1.67 1.60 1.54 1.49 1.47 1.44 1.44 1.47 1.52 1.58 1.57 1.55 1.51 1.43 1.37 1.34 1.32 1.30 1.25 1.22
1.08 1.11 1.13 1.14 1.17 1.22 1.24 1.28 1.33 1.38 1.41 1.43 1.44 1.46 1.48 1.52 1.53 1.56 1.62 1.67 1.69 1.69 1.68 1.70 1.68 1.67 1.65 1.68 1.70 1.72 1.74 1.76 1.76 1.77 1.78 1.78 1.79 1.79 1.78 1.78 1.79 1.84 1.89 1.91 2.01 2.06 2.06 2.07 2.06 2.02 1.98 1.90 1.82 1.80 1.78 1.80 1.81 1.79 1.77 1.76 1.76 1.73 1.68 1.64 1.63 1.62 1.58 1.54 1.49 1.43 1.42 1.43 1.47 1.51 1.51 1.45 1.36 1.29 1.25 1.20 1.17 1.16 1.14 1.10 1.04
0.98 1.01 1.02 1.06 1.08 1.08 1.06 1.08 1.10 1.14 1.19 1.25 1.29 1.32 1.38 1.41 1.45 1.46 1.49 1.55 1.58 1.59 1.61 1.62 1.60 1.56 1.54 1.57 1.58 1.60 1.61 1.61 1.60 1.61 1.62 1.58 1.55 1.56 1.60 1.64 1.71 1.84 1.97 2.09 2.10 2.08 2.03 2.01 1.99 1.95 1.82 1.80 1.80 1.80 1.79 1.79 1.77 1.75 1.74 1.69 1.67 1.67 1.68 1.67 1.64 1.61 1.56 1.52 1.47 1.44 1.42 1.42 1.40 1.30 1.22 1.17 1.12 1.11 1.09 1.02 0.95 0.91 0.87 0.84 0.77
0.92 0.94 0.97 0.99 1.02 1.02 1.02 1.00 0.97 0.95 0.96 0.98 1.00 1.07 1.14 1.21 1.29 1.36 1.41 1.45 1.48 1.54 1.52 1.54 1.56 1.55 1.51 1.49 1.49 1.49 1.48 1.49 1.48 1.47 1.49 1.46 1.46 1.46 1.46 1.46 1.51 1.65 1.76 1.85 1.90 1.93 1.94 1.89 1.80 1.71 1.70 1.73 1.75 1.73 1.71 1.70 1.68 1.67 1.66 1.65 1.65 1.68 1.68 1.67 1.65 1.60 1.54 1.50 1.43 1.37 1.30 1.24 1.15 1.10 1.03 0.93 0.86 0.83 0.83 0.77 0.72 0.69 0.69 0.65 0.59
0.95 0.92 0.93 0.93 0.94 0.98 0.98 0.99 0.99 0.98 0.97 0.95 0.94 0.95 0.95 1.01 1.12 1.29 1.41 1.48 1.51 1.58 1.61 1.60 1.56 1.54 1.51 1.49 1.50 1.50 1.52 1.48 1.49 1.51 1.51 1.49 1.46 1.43 1.38 1.33 1.34 1.35 1.40 1.48 1.55 1.64 1.64 1.59 1.57 1.60 1.62 1.60 1.58 1.57 1.57 1.57 1.57 1.59 1.57 1.54 1.50 1.46 1.41 1.36 1.32 1.31 1.30 1.26 1.21 1.17 1.13 1.08 1.00 0.91 0.81 0.75 0.73 0.72 0.74 0.69 0.68 0.64 0.64 0.62 0.56
0.94 0.94 0.95 0.93 0.92 0.92 0.93 0.94 0.94 0.94 0.95 0.96 0.96 0.95 1.02 1.03 1.02 1.07 1.20 1.36 1.42 1.49 1.58 1.62 1.61 1.56 1.48 1.50 1.55 1.49 1.48 1.52 1.56 1.52 1.48 1.46 1.44 1.41 1.37 1.31 1.23 1.22 1.30 1.36 1.35 1.29 1.29 1.29 1.36 1.44 1.48 1.47 1.47 1.48 1.49 1.46 1.40 1.34 1.30 1.25 1.21 1.17 1.15 1.14 1.13 1.11 1.10 1.08 1.06 1.02 0.96 0.91 0.85 0.79 0.73 0.68 0.68 0.69 0.70 0.68 0.65 0.65 0.61 0.58 0.55
0.93 0.95 0.94 0.92 0.92 0.93 0.94 0.92 0.92 0.92 0.91 0.91 0.93 0.94 0.95 0.99 1.05 1.05 1.04 1.08 1.15 1.22 1.23 1.26 1.36 1.41 1.41 1.42 1.48 1.49 1.47 1.40 1.35 1.35 1.34 1.30 1.28 1.30 1.31 1.29 1.24 1.20 1.26 1.27 1.23 1.21 1.17 1.17 1.27 1.41 1.43 1.41 1.39 1.39 1.36 1.28 1.20 1.13 1.09 1.09 1.08 1.07 1.06 1.04 1.03 1.02 1.00 0.98 0.95 0.93 0.90 0.84 0.78 0.73 0.67 0.66 0.65 0.65 0.66 0.67 0.65 0.63 0.58 0.56 0.52
0.86 0.91 0.94 0.95 0.96 0.95 0.95 0.94 0.93 0.93 0.94 0.91 0.87 0.86 0.84 0.89 0.94 1.01 1.02 1.03 1.06 1.08 1.11 1.16 1.18 1.17 1.19 1.24 1.27 1.30 1.28 1.24 1.24 1.22 1.20 1.19 1.17 1.18 1.20 1.21 1.24 1.28 1.32 1.29 1.20 1.18 1.20 1.18 1.20 1.35 1.37 1.34 1.33 1.30 1.22 1.14 1.09 1.06 1.04 1.01 1.01 1.03 1.03 1.02 1.04 1.02 0.98 0.95 0.92 0.89 0.86 0.80 0.76 0.71 0.68 0.66 0.64 0.63 0.61 0.60 0.59 0.57 0.55 0.55 0.53
0.83 0.85 0.86 0.90 0.93 0.93 0.92 0.93 0.91 0.89 0.90 0.92 0.90 0.87 0.83 0.82 0.82 0.86 0.96 1.02 1.02 1.03 1.05 1.03 1.01 1.00 1.00 0.99 1.00 1.01 1.02 1.03 1.05 1.05 1.07 1.13 1.17 1.15 1.13 1.13 1.14 1.19 1.22 1.19 1.15 1.14 1.17 1.16 1.14 1.22 1.27 1.25 1.22 1.16 1.10 1.07 1.05 1.03 1.02 1.00 1.00 1.02 1.03 1.04 1.04 1.00 0.96 0.94 0.91 0.87 0.82 0.78 0.73 0.69 0.67 0.65 0.63 0.58 0.58 0.56 0.55 0.54 0.53 0.50 0.50
0.80 0.80 0.79 0.79 0.78 0.81 0.85 0.86 0.85 0.83 0.84 0.86 0.90 0.89 0.89 0.87 0.81 0.83 0.85 0.87 0.92 0.96 0.99 0.99 1.00 1.01 0.99 0.97 0.94 0.93 0.93 0.95 0.95 0.94 0.96 0.99 1.01 1.05 1.08 1.09 1.10 1.10 1.10 1.06 1.06 1.04 1.09 1.08 1.10 1.12 1.14 1.14 1.11 1.08 1.05 1.04 1.04 1.03 1.03 1.03 1.03 1.02 1.02 1.02 0.98 0.94 0.92 0.90 0.86 0.82 0.78 0.74 0.71 0.67 0.65 0.64 0.62 0.60 0.56 0.55 0.55 0.53 0.51 0.50 0.48
0.78 0.81 0.81 0.79 0.74 0.73 0.73 0.74 0.74 0.74 0.77 0.79 0.81 0.83 0.84 0.88 0.83 0.81 0.82 0.81 0.81 0.82 0.81 0.83 0.91 0.96 0.97 0.97 0.98 0.98 0.98 0.99 1.00 1.00 0.99 0.96 0.96 0.99 0.98 0.99 0.99 1.02 1.01 1.03 1.01 1.00 0.99 1.00 1.01 1.03 1.04 1.02 1.03 1.03 1.03 1.03 1.04 1.03 1.02 1.01 1.01 1.00 0.98 0.96 0.93 0.92 0.89 0.87 0.83 0.79 0.76 0.72 0.71 0.69 0.66 0.63 0.61 0.59 0.59 0.58 0.57 0.54 0.50 0.49 0.48
0.73 0.74 0.74 0.72 0.71 0.70 0.70 0.71 0.69 0.70 0.70 0.73 0.77 0.79 0.81 0.83 0.83 0.83 0.83 0.82 0.81 0.82 0.83 0.83 0.84 0.89 0.94 0.94 0.96 0.98 0.99 0.99 1.01 1.02 0.99 0.98 0.96 0.93 0.86 0.85 0.87 0.92 0.94 0.99 0.97 0.98 0.98 0.99 1.00 1.01 1.02 1.01 1.02 1.02 1.03 1.03 1.03 1.03 1.03 1.01 0.98 0.97 0.96 0.94 0.92 0.90 0.88 0.84 0.80 0.77 0.75 0.73 0.72 0.70 0.68 0.67 0.65 0.63 0.60 0.57 0.55 0.54 0.52 0.51 0.51
0.69 0.68 0.66 0.63 0.63 0.66 0.68 0.68 0.66 0.65 0.67 0.70 0.74 0.75 0.78 0.81 0.84 0.87 0.87 0.87 0.86 0.87 0.87 0.87 0.85 0.82 0.87 0.94 1.00 0.98 0.98 0.99 0.97 0.95 0.97 0.99 1.02 0.99 0.93 0.90 0.91 0.93 0.97 0.97 1.00 1.00 0.99 0.99 1.00 0.99 1.00 0.99 1.00 1.01 1.01 1.02 1.03 1.03 1.02 1.01 0.99 0.95 0.93 0.91 0.89 0.87 0.84 0.80 0.78 0.76 0.75 0.73 0.72 0.71 0.68 0.64 0.62 0.61 0.59 0.57 0.55 0.54 0.54 0.53 0.51
0.70 0.71 0.70 0.68 0.63 0.61 0.63 0.64 0.66 0.66 0.66 0.69 0.71 0.73 0.75 0.79 0.82 0.87 0.88 0.88 0.88 0.89 0.88 0.89 0.87 0.83 0.83 0.89 1.01 1.00 0.97 0.95 0.93 0.93 0.93 0.92 0.96 0.97 0.97 0.96 0.94 0.92 0.93 0.97 0.99 1.00 0.99 0.99 0.98 0.96 0.96 0.96 0.95 0.96 0.97 0.97 0.98 0.97 0.96 0.96 0.94 0.93 0.90 0.87 0.85 0.84 0.82 0.80 0.77 0.75 0.73 0.71 0.71 0.69 0.67 0.63 0.61 0.59 0.58 0.57 0.56 0.54 0.53 0.52 0.50
0.74 0.74 0.75 0.74 0.69 0.65 0.65 0.64 0.64 0.64 0.65 0.69 0.73 0.73 0.72 0.74 0.77 0.80 0.83 0.85 0.85 0.85 0.86 0.87 0.87 0.84 0.84 0.88 0.93 0.99 0.98 0.94 0.93 0.91 0.89 0.88 0.89 0.89 0.91 0.92 0.93 0.93 0.94 0.95 0.96 0.96 0.96 0.96 0.98 0.98 0.96 0.95 0.95 0.94 0.93 0.92 0.92 0.91 0.91 0.90 0.88 0.87 0.86 0.84 0.82 0.80 0.79 0.77 0.75 0.73 0.71 0.70 0.69 0.68 0.67 0.64 0.61 0.59 0.57 0.56 0.54 0.52 0.50 0.48 0.46
0.76 0.73 0.73 0.73 0.70 0.69 0.70 0.71 0.72 0.70 0.69 0.67 0.69 0.72 0.73 0.73 0.74 0.75 0.76 0.77 0.77 0.79 0.81 0.83 0.85 0.85 0.88 0.90 0.91 0.91 0.88 0.90 0.90 0.90 0.92 0.94 0.93 0.91 0.88 0.86 0.87 0.88 0.89 0.92 0.93 0.93 0.94 0.95 0.95 0.95 0.94 0.94 0.92 0.91 0.91 0.89 0.88 0.87 0.86 0.83 0.80 0.78 0.78 0.78 0.78 0.77 0.75 0.75 0.74 0.73 0.71 0.70 0.69 0.68 0.67 0.64 0.62 0.59 0.57 0.55 0.54 0.52 0.50 0.47 0.46
0.76 0.75 0.75 0.74 0.72 0.69 0.69 0.71 0.72 0.72 0.72 0.72 0.72 0.72 0.72 0.73 0.75 0.76 0.76 0.75 0.75 0.76 0.77 0.79 0.81 0.85 0.89 0.90 0.92 0.91 0.86 0.84 0.85 0.87 0.90 0.92 0.93 0.93 0.93 0.91 0.89 0.88 0.89 0.89 0.88 0.88 0.88 0.89 0.90 0.90 0.90 0.89 0.88 0.87 0.86 0.85 0.84 0.83 0.82 0.81 0.80 0.80 0.79 0.79 0.79 0.77 0.76 0.75 0.74 0.73 0.72 0.71 0.69 0.66 0.63 0.62 0.61 0.58 0.57 0.56 0.53 0.50 0.48 0.47 0.47
0.78 0.75 0.73 0.73 0.72 0.69 0.66 0.68 0.72 0.75 0.74 0.75 0.74 0.74 0.74 0.75 0.76 0.75 0.75 0.75 0.75 0.75 0.75 0.76 0.78 0.81 0.84 0.85 0.85 0.86 0.85 0.85 0.86 0.86 0.87 0.88 0.89 0.92 0.95 0.95 0.95 0.94 0.91 0.89 0.88 0.87 0.85 0.84 0.83 0.83 0.83 0.83 0.82 0.83 0.83 0.83 0.82 0.81 0.80 0.80 0.79 0.78 0.77 0.76 0.76 0.75 0.73 0.72 0.71 0.70 0.68 0.67 0.65 0.63 0.61 0.61 0.58 0.57 0.55 0.52 0.50 0.49 0.48 0.48 0.48
0.79 0.79 0.78 0.77 0.76 0.74 0.69 0.69 0.73 0.73 0.73 0.74 0.75 0.77 0.77 0.78 0.78 0.78 0.76 0.75 0.74 0.73 0.73 0.74 0.77 0.79 0.81 0.83 0.84 0.84 0.83 0.83 0.83 0.84 0.86 0.88 0.90 0.91 0.91 0.92 0.95 0.97 0.97 0.97 0.96 0.94 0.91 0.88 0.84 0.80 0.79 0.78 0.77 0.77 0.76 0.75 0.75 0.75 0.74 0.74 0.74 0.73 0.72 0.71 0.69 0.69 0.68 0.67 0.66 0.65 0.64 0.63 0.62 0.60 0.59 0.58 0.56 0.54 0.52 0.50 0.49 0.49 0.49 0.49 0.48
0.88 0.84 0.81 0.77 0.75 0.73 0.71 0.72 0.73 0.73 0.74 0.76 0.77 0.77 0.77 0.78 0.78 0.77 0.76 0.75 0.75 0.75 0.74 0.74 0.75 0.76 0.77 0.80 0.81 0.81 0.81 0.82 0.82 0.82 0.82 0.83 0.84 0.85 0.88 0.90 0.92 0.93 0.95 0.96 0.96 0.96 0.94 0.92 0.90 0.89 0.87 0.84 0.82 0.79 0.77 0.76 0.75 0.73 0.71 0.70 0.69 0.68 0.67 0.67 0.66 0.66 0.66 0.65 0.65 0.64 0.62 0.61 0.59 0.56 0.54 0.54 0.53 0.51 0.50 0.50 0.49 0.48 0.48 0.48 0.48
0.81 0.84 0.83 0.82 0.79 0.75 0.73 0.73 0.73 0.73 0.75 0.76 0.75 0.75 0.75 0.75 0.77 0.78 0.77 0.76 0.77 0.77 0.77 0.77 0.77 0.76 0.75 0.75 0.76 0.76 0.77 0.78 0.79 0.80 0.80 0.80 0.80 0.82 0.84 0.85 0.86 0.88 0.89 0.90 0.93 0.93 0.92 0.91 0.90 0.88 0.87 0.86 0.85 0.83 0.81 0.79 0.77 0.75 0.74 0.72 0.70 0.69 0.68 0.68 0.68 0.68 0.66 0.64 0.62 0.59 0.57 0.55 0.53 0.52 0.52 0.52 0.51 0.50 0.49 0.49 0.49 0.48 0.48 0.48 0.48
0.74 0.76 0.77 0.78 0.79 0.80 0.79 0.79 0.78 0.76 0.76 0.76 0.76 0.77 0.77 0.77 0.78 0.78 0.77 0.78 0.78 0.77 0.77 0.78 0.78 0.77 0.76 0.76 0.76 0.75 0.75 0.74 0.74 0.75 0.75 0.76 0.77 0.78 0.80 0.82 0.83 0.83 0.84 0.86 0.87 0.88 0.86 0.85 0.84 0.84 0.83 0.83 0.82 0.81 0.80 0.79 0.78 0.77 0.75 0.73 0.71 0.70 0.69 0.68 0.68 0.66 0.64 0.61 0.58 0.56 0.55 0.54 0.53 0.53 0.52 0.51 0.50 0.50 0.49 0.49 0.49 0.49 0.49 0.48 0.49
0.69 0.67 0.66 0.66 0.65 0.68 0.72 0.77 0.80 0.80 0.81 0.80 0.80 0.81 0.81 0.80 0.80 0.79 0.78 0.78 0.78 0.78 0.78 0.78 0.78 0.78 0.78 0.78 0.78 0.77 0.76 0.74 0.72 0.71 0.71 0.71 0.72 0.73 0.75 0.77 0.78 0.79 0.79 0.81 0.83 0.83 0.83 0.82 0.81 0.80 0.78 0.78 0.78 0.78 0.78 0.78 0.77 0.76 0.75 0.73 0.72 0.71 0.69 0.68 0.66 0.64 0.62 0.60 0.59 0.57 0.55 0.53 0.52 0.51 0.50 0.50 0.49 0.49 0.49 0.49 0.50 0.50 0.51 0.51 0.51
0.72 0.71 0.70 0.70 0.70 0.69 0.69 0.69 0.69 0.72 0.76 0.80 0.80 0.80 0.79 0.78 0.79 0.79 0.78 0.79 0.79 0.79 0.80 0.81 0.81 0.81 0.80 0.79 0.79 0.77 0.75 0.74 0.73 0.72 0.71 0.70 0.70 0.69 0.70 0.70 0.71 0.72 0.72 0.73 0.74 0.76 0.77 0.76 0.76 0.76 0.75 0.74 0.74 0.73 0.73 0.73 0.72 0.71 0.71 0.70 0.70 0.69 0.67 0.65 0.63 0.63 0.62 0.61 0.59 0.57 0.55 0.53 0.51 0.50 0.50 0.49 0.48 0.48 0.48 0.48 0.51 0.52 0.52 0.53 0.53
0.71 0.70 0.69 0.68 0.69 0.70 0.71 0.72 0.72 0.70 0.69 0.71 0.73 0.75 0.78 0.78 0.78 0.79 0.77 0.78 0.78 0.78 0.79 0.80 0.80 0.81 0.80 0.79 0.77 0.75 0.74 0.72 0.70 0.70 0.69 0.69 0.68 0.67 0.67 0.67 0.66 0.66 0.66 0.67 0.69 0.70 0.70 0.70 0.71 0.71 0.71 0.71 0.70 0.69 0.68 0.68 0.67 0.66 0.66 0.65 0.64 0.63 0.61 0.61 0.61 0.60 0.59 0.58 0.56 0.55 0.53 0.51 0.49 0.48 0.48 0.48 0.48 0.48 0.49 0.51 0.51 0.51 0.52 0.51 0.50
0.68 0.69 0.71 0.71 0.71 0.71 0.73 0.74 0.75 0.74 0.73 0.73 0.72 0.71 0.72 0.73 0.75 0.78 0.79 0.78 0.77 0.76 0.76 0.77 0.78 0.78 0.78 0.76 0.74 0.73 0.71 0.70 0.68 0.67 0.66 0.65 0.64 0.64 0.63 0.63 0.63 0.63 0.63 0.63 0.65 0.67 0.68 0.67 0.67 0.67 0.66 0.66 0.66 0.65 0.65 0.64 0.63 0.63 0.63 0.62 0.61 0.60 0.60 0.60 0.59 0.59 0.58 0.56 0.55 0.54 0.52 0.50 0.49 0.48 0.48 0.48 0.49 0.49 0.49 0.50 0.51 0.52 0.50 0.49 0.49
0.66 0.67 0.66 0.66 0.67 0.69 0.69 0.68 0.69 0.70 0.71 0.71 0.72 0.73 0.75 0.75 0.75 0.74 0.75 0.75 0.74 0.75 0.75 0.74 0.74 0.75 0.75 0.75 0.75 0.72 0.70 0.68 0.67 0.65 0.63 0.61 0.60 0.59 0.57 0.57 0.56 0.57 0.58 0.59 0.60 0.63 0.64 0.65 0.65 0.65 0.64 0.63 0.63 0.62 0.61 0.60 0.59 0.58 0.58 0.57 0.57 0.58 0.58 0.57 0.56 0.56 0.55 0.54 0.53 0.52 0.50 0.49 0.48 0.47 0.48 0.49 0.49 0.49 0.50 0.51 0.51 0.50 0.49 0.50 0.50
Wind_Speed
21 21 20 20 20 20 20 20 19 18 18 17 17 17 16 16 15 15 14 14 13 13 13 12 12 12 11 11 11 11 10 10 10 10 10 10 9 9 9 9 9 9 8 8 8 8 8 8 8 8 8 8 8 8 8 8 8 8 7 7 6 6 6 5 5 6 7 6 6 6 6 7 7 7 8 9 9 10 11 11 12 12 12 12 13
22 22 21 21 21 20 20 20 20 19 19 18 18 17 17 16 16 15 15 15 14 14 13 13 13 12 12 11 11 11 11 11 11 10 10 10 10 10 10 9 9 9 9 9 8 8 8 8 8 8 8 8 8 8 7 7 7 8 7 7 6 6 6 5 6 6 7 7 6 6 6 7 7 8 9 9 10 10 10 11 12 12 12 12 13
22 22 22 22 22 21 21 21 21 20 20 19 19 18 18 17 17 16 16 15 15 14 14 14 13 13 13 12 12 12 11 11 11 11 11 11 10 10 10 10 10 10 9 9 9 8 8 8 8 8 8 8 8 7 7 7 7 7 7 6 6 6 6 6 6 6 6 7 7 7 7 8 8 9 10 10 10 10 11 11 12 12 12 13 13
23 23 23 23 23 22 22 22 21 21 21 20 20 19 19 18 17 17 16 16 15 15 15 15 14 14 13 13 13 13 12 12 12 12 12 11 11 11 11 10 10 10 10 10 9 9 9 9 8 8 8 8 8 7 7 7 7 7 7 7 7 7 6 6 7 6 7 7 8 8 8 9 9 10 11 11 11 11 11 12 12 13 13 13 14
24 24 24 24 24 23 23 23 22 22 22 21 21 20 20 19 18 18 17 17 16 16 16 16 15 15 15 14 14 14 13 13 13 13 12 12 12 12 11 11 11 11 11 10 10 10 9 9 9 9 9 8 8 8 8 8 8 7 7 7 7 7 7 7 7 8 8 9 9 10 10 10 10 11 11 11 12 12 12 12 13 13 13 13 14
25 25 25 25 24 24 24 24 24 23 23 22 22 21 21 20 20 19 18 18 17 17 17 16 16 16 16 16 15 15 14 14 14 14 14 13 13 13 12 12 12 12 11 11 11 11 10 10 10 10 10 9 9 9 9 8 8 8 8 8 8 8 8 8 8 8 9 9 10 11 11 11 12 12 12 12 12 12 12 13 13 13 13 13 14
25 25 25 25 25 25 25 25 24 24 24 23 23 23 22 22 21 20 20 19 19 18 18 17 17 17 16 17 16 16 16 15 15 15 15 14 14 14 14 13 13 13 13 12 12 12 12 12 11 11 11 11 10 10 10 9 9 9 10 9 9 9 9 9 9 9 10 11 11 12 12 12 12 12 12 13 13 13 13 14 14 14 14 14 15
25 25 25 25 26 26 25 25 25 25 25 24 24 24 24 23 23 22 21 21 20 20 19 19 18 17 17 17 17 17 17 16 16 16 16 16 15 15 15 15 15 14 14 14 13 13 13 13 13 12 12 12 12 11 11 11 11 11 11 11 11 11 11 11 11 11 11 12 12 12 13 13 13 13 13 14 14 14 14 15 15 15 15 15 16
27 26 26 26 26 26 26 26 25 25 25 25 25 25 25 24 24 23 22 22 22 21 20 20 19 19 18 18 18 18 18 18 17 17 17 17 16 16 16 16 16 16 15 15 15 15 14 14 14 14 14 14 13 13 13 13 12 12 12 12 12 12 12 13 13 13 13 13 13 13 13 14 14 14 14 15 15 15 15 16 16 16 16 16 16
28 28 28 27 27 26 26 26 26 26 25 25 24 24 25 25 25 24 24 23 23 22 22 21 21 20 20 19 19 18 18 18 18 19 18 18 18 18 17 17 17 17 17 16 16 16 16 16 16 16 16 15 15 15 15 15 14 14 14 14 13 14 14 14 15 14 14 14 14 14 15 15 15 15 15 16 16 16 16 16 17 17 18 17 17
29 29 28 28 27 27 26 26 25 26 26 26 25 24 24 24 25 25 25 24 23 23 23 23 22 22 21 20 20 19 19 19 19 19 19 19 19 19 19 19 18 18 18 18 17 17 17 17 17 17 17 17 16 16 16 16 16 16 16 16 15 15 15 16 16 15 15 15 15 16 16 16 16 16 16 17 16 17 17 17 18 18 18 18 17
30 29 28 27 27 27 27 26 26 26 26 26 26 25 23 23 24 24 24 25 24 24 24 24 23 23 22 22 21 21 20 20 20 20 20 20 20 20 20 20 20 20 19 19 19 18 18 18 18 18 18 18 17 17 17 16 16 16 17 17 17 17 17 17 16 16 16 16 17 17 17 17 18 17 17 17 18 18 18 18 18 18 18 18 18
29 28 28 27 27 27 27 27 27 27 26 25 25 25 24 24 23 23 23 24 24 24 24 24 24 23 23 23 23 22 21 21 21 21 21 21 21 20 20 20 20 21 21 20 19 19 19 19 18 18 18 18 18 18 18 17 17 17 17 17 18 18 18 17 17 18 18 18 18 19 18 18 18 18 18 18 18 19 19 19 19 18 18 19 19
27 27 27 27 27 26 26 26 26 27 26 25 24 25 24 24 23 23 23 23 23 22 22 23 23 23 24 24 23 23 23 22 22 22 22 22 22 22 21 21 21 21 21 21 20 20 19 19 19 19 18 18 18 18 18 18 18 18 18 18 18 18 18 18 19 19 19 19 19 19 19 19 19 19 19 19 19 19 19 19 19 19 19 19 19
27 26 25 25 26 26 26 26 26 26 26 25 24 23 24 24 23 23 23 23 23 23 22 22 22 23 23 24 24 24 24 23 23 23 23 23 23 23 23 22 22 22 22 22 22 21 21 20 20 19 19 19 19 19 19 19 19 19 19 19 19 19 19 19 19 19 19 19 19 20 20 20 20 20 20 20 20 20 20 20 20 19 19 19 19
25 24 24 24 25 25 26 26 26 26 26 25 24 24 24 24 24 24 24 23 23 24 24 23 23 23 24 24 25 25 25 24 24 24 24 24 24 24 24 24 23 23 23 23 23 22 22 22 21 20 20 20 20 20 20 20 20 20 20 20 20 20 20 20 19 19 20 20 20 20 20 20 20 20 20 21 21 20 20 20 20 20 20 19 19
22 22 22 23 23 23 23 24 24 25 24 24 25 25 25 25 25 25 25 24 24 25 26 26 25 25 25 25 26 26 26 26 26 26 26 26 26 25 25 25 25 25 25 24 24 24 24 23 23 22 22 22 22 22 22 21 21 22 22 22 21 21 21 21 21 21 20 20 21 21 21 21 20 20 20 20 20 20 20 20 20 20 19 19 19
18 19 19 20 20 20 21 21 21 22 22 22 23 24 24 24 25 26 27 27 27 27 27 27 27 27 27 27 28 28 28 27 27 27 27 27 28 28 27 27 27 27 27 26 26 25 25 25 25 24 24 24 23 23 23 23 23 23 23 23 23 23 23 23 22 22 21 21 21 21 21 21 20 20 20 20 20 20 19 19 19 19 19 19 19
14 15 16 17 18 19 19 20 20 20 20 21 22 22 23 23 24 25 26 27 28 28 28 29 29 29 29 30 30 30 30 29 29 29 29 29 29 29 29 29 29 29 28 28 28 27 27 27 26 26 26 25 25 24 24 23 23 23 23 24 24 23 23 23 23 22 22 21 21 21 21 20 20 20 20 19 19 19 18 18 18 18 18 18 18
10 12 13 14 15 16 17 17 17 18 19 19 20 21 22 22 22 23 24 25 27 27 28 29 29 30 31 31 31 31 31 31 30 30 31 31 31 31 31 31 31 30 30 30 29 29 29 29 28 27 27 26 26 26 25 24 23 23 23 23 23 23 23 23 23 22 22 21 21 20 20 20 20 19 19 19 18 18 18 18 18 18 18 18 18
9 9 10 10 11 13 14 14 15 16 17 17 18 19 21 22 22 22 23 24 25 25 25 26 27 27 28 29 30 30 31 31 31 31 32 32 32 32 33 33 32 32 32 32 32 32 32 31 30 30 29 28 27 26 25 24 24 24 24 24 24 24 23 23 23 22 21 21 20 19 19 19 19 19 19 19 18 18 18 19 19 19 18 18 18
11 10 10 10 11 11 12 11 12 13 14 15 15 16 17 19 20 20 21 22 22 23 23 23 23 23 24 25 25 26 27 28 28 30 31 32 32 33 33 34 34 34 34 35 34 34 33 33 32 31 30 29 27 26 26 25 25 24 24 23 24 24 23 23 22 21 20 20 19 19 19 18 18 18 18 18 19 19 19 19 19 19 18 18 18
12 12 12 12 12 12 12 11 11 11 12 14 14 14 15 16 17 18 19 20 20 20 21 21 21 21 21 22 22 22 23 23 24 24 25 27 28 29 30 31 32 33 33 34 33 33 33 33 31 31 30 29 28 27 26 25 24 23 22 22 22 22 22 21 21 20 19 19 19 19 19 18 18 18 18 19 19 19 19 19 19 19 18 18 17
13 13 13 13 13 13 13 12 12 12 12 13 14 14 15 16 17 18 18 19 19 19 19 19 20 20 20 20 20 20 21 21 21 21 21 22 23 24 25 26 27 28 29 30 30 30 30 30 29 29 29 28 27 26 25 24 23 22 21 21 21 21 20 20 19 19 18 18 18 18 18 18 18 18 19 19 19 19 19 19 19 18 18 18 17
15 15 15 15 15 15 15 15 14 14 14 14 14 14 14 15 16 17 18 19 19 18 18 19 18 18 18 19 19 19 19 19 19 19 20 20 21 21 22 23 24 25 26 27 27 27 27 27 27 27 27 25 24 23 23 22 22 21 21 21 21 21 20 19 19 19 18 18 18 18 18 18 18 19 19 19 19 19 19 19 19 19 19 19 18
17 17 17 17 17 17 17 17 17 17 16 16 16 15 15 15 15 16 17 18 18 18 18 18 18 17 18 18 19 19 19 19 19 19 19 19 19 20 20 21 22 22 23 23 23 23 23 24 24 23 23 22 20 19 19 19 20 20 20 20 20 20 21 20 20 20 20 20 19 19 19 19 19 19 19 19 19 19 19 19 20 20 20 20 20
16 17 17 17 17 18 18 18 18 18 18 18 17 17 17 17 16 16 16 17 18 18 18 18 18 18 18 18 19 19 18 18 19 18 18 18 19 19 19 18 18 18 18 18 18 18 18 18 18 18 18 18 18 18 17 17 17 18 18 18 19 19 19 19 20 20 21 21 20 19 19 19 19 18 18 19 19 19 19 19 20 20 21 21 21
17 17 17 18 18 18 18 18 18 19 19 19 19 19 19 19 19 18 18 18 18 18 18 18 18 18 18 18 18 19 19 19 19 19 19 19 19 19 18 18 17 17 16 16 16 16 17 17 17 17 18 18 18 17 17 17 17 17 17 17 17 17 17 17 17 17 18 19 19 19 19 19 19 19 19 19 19 19 20 20 20 20 21 21 21
18 18 18 18 19 19 19 19 19 19 19 19 19 19 20 20 20 19 19 19 19 19 19 18 18 18 18 17 18 19 19 20 20 20 20 20 20 20 19 19 19 19 19 19 19 19 19 20 20 20 19 19 19 18 18 18 17 17 17 17 17 16 16 16 16 16 17 18 18 18 19 19 19 20 20 20 20 20 20 20 20 21 21 21 21
19 19 19 20 20 20 20 20 20 20 19 19 19 19 19 19 20 20 20 20 20 20 19 19 19 19 19 19 19 19 19 20 21 21 21 22 21 21 21 21 21 21 21 21 21 21 21 22 22 22 21 20 20 19 19 18 18 17 17 17 17 17 17 18 18 18 18 19 19 19 19 20 20 20 20 20 20 20 21 21 21 21 22 22 21
20 20 21 21 21 21 21 21 21 20 20 20 19 19 19 19 19 19 20 21 21 21 21 21 21 22 22 22 22 22 22 22 22 23 23 23 23 23 23 23 23 22 22 21 21 21 21 22 22 22 22 21 20 20 19 19 19 18 18 18 18 19 19 19 20 20 20 20 20 20 20 20 20 20 21 20 21 21 21 22 22 22 23 23 23
21 21 21 22 22 22 22 22 21 21 21 21 21 20 20 20 20 20 20 21 21 22 22 23 23 24 24 25 25 25 25 25 25 25 25 25 24 24 24 24 23 23 22 22 21 21 21 21 22 22 22 21 21 20 20 20 20 20 19 19 20 20 20 21 21 21 21 21 21 21 21 21 21 21 21 21 22 22 22 22 23 23 24 24 24
21 21 22 22 23 23 23 23 23 23 22 22 22 21 21 21 21 21 21 21 21 22 22 23 24 24 24 25 25 25 26 26 26 25 26 25 25 24 24 23 23 23 23 22 21 21 21 21 22 22 22 22 22 21 21 21 21 21 21 21 21 21 21 22 22 22 22 22 22 22 22 22 22 22 23 23 23 23 23 24 24 25 25 26 26
22 22 23 23 23 24 24 24 24 24 24 23 23 22 22 22 22 22 22 22 22 22 22 23 23 23 23 23 24 24 24 24 24 24 25 25 25 25 24 24 24 23 23 22 22 22 22 22 22 23 23 23 22 22 22 22 22 22 22 22 22 22 22 23 22 22 22 22 23 23 23 23 23 23 24 24 24 24 25 26 26 27 27 28 29
23 24 24 24 24 24 25 25 25 25 24 24 24 24 24 23 23 23 23 23 23 23 23 23 23 23 23 23 23 23 23 23 23 23 24 24 25 25 25 25 24 24 24 24 24 23 23 23 23 24 24 23 23 23 23 23 23 23 23 23 23 23 23 23 23 23 23 23 24 24 24 24 24 25 25 26 26 27 27 28 29 29 29 30 31
24 25 25 25 25 26 26 25 25 26 25 25 25 25 25 25 24 24 24 24 23 23 23 23 23 23 23 23 22 23 23 22 23 23 24 24 25 25 25 25 25 25 25 25 25 24 24 24 25 25 25 24 24 24 24 24 24 24 24 24 24 24 24 24 24 24 25 25 25 25 25 26 26 27 27 28 28 29 30 30 31 31 31 32 33
25 25 25 26 26 26 26 26 26 26 26 26 26 26 26 25 25 25 25 25 24 24 24 24 24 24 24 24 24 24 23 23 22 22 23 24 24 25 25 25 25 25 25 24 24 24 24 25 25 26 26 26 26 26 26 25 25 25 25 25 25 25 25 25 25 26 26 26 26 27 27 27 28 29 29 30 30 31 31 32 33 33 34 35 35
26 26 26 26 26 27 27 27 27 27 27 27 26 26 26 26 26 25 25 25 25 25 25 25 25 25 25 25 25 25 25 25 24 24 24 24 24 25 25 25 24 24 24 24 25 25 25 26 26 26 27 27 27 27 27 27 27 26 26 26 26 26 26 26 27 27 28 28 28 29 29 29 30 30 31 31 32 33 33 34 35 36 37 37 37
27 27 27 27 27 27 27 27 27 27 27 27 27 27 26 26 26 26 26 26 25 25 25 26 26 26 26 26 26 26 27 27 27 27 27 25 25 24 25 25 25 25 25 25 26 26 26 27 27 27 27 27 27 28 28 28 28 28 28 28 28 28 28 29 29 30 30 30 30 30 30 31 31 32 33 33 34 35 36 37 38 38 38 39 38
28 28 28 28 28 28 27 27 27 27 27 27 27 27 27 26 26 26 26 26 26 25 25 25 26 26 26 26 26 27 27 26 27 27 28 27 27 26 25 25 25 25 26 26 27 27 27 27 28 28 28 28 29 29 29 30 30 30 30 30 30 30 31 31 31 31 31 32 32 32 32 32 33 34 35 36 37 38 38 39 39 39 39 39 38
29 29 29 29 29 28 28 28 28 27 27 27 27 27 27 27 27 27 26 26 26 25 25 25 26 26 27 27 27 27 27 26 26 26 26 27 27 27 27 27 27 27 27 27 28 28 29 29 29 29 29 30 30 30 31 31 31 31 31 31 31 31 32 32 32 32 33 33 33 34 34 35 35 36 37 38 38 39 39 39 39 38 38 37 37
30 30 30 30 30 30 29 29 29 28 28 28 28 28 28 27 27 27 27 26 26 26 26 26 26 26 26 26 26 27 27 26 26 26 27 27 27 28 28 28 29 29 28 28 28 28 29 29 30 30 31 31 31 31 32 32 32 32 32 32 32 33 33 33 34 34 34 34 35 35 36 36 37 37 38 38 38 38 38 37 37 36 36 36 36
30 30 31 31 31 31 31 30 30 29 29 29 29 29 29 29 28 28 28 27 27 27 27 27 27 27 27 27 26 26 26 26 27 27 28 28 29 29 30 30 30 31 31 30 29 29 29 29 29 30 31 31 32 32 32 33 33 33 34 34 34 34 34 35 35 35 36 36 37 37 37 37 38 38 38 37 37 37 37 36 36 36 36 36 36
31 31 31 31 32 32 31 31 31 31 30 30 30 30 30 30 30 30 29 29 29 28 28 28 28 28 28 28 28 27 27 27 27 27 28 28 29 29 30 31 31 32 32 32 32 32 32 31 31 31 31 31 32 32 33 33 33 34 34 35 35 35 35 36 36 37 37 37 37 38 38 38 38 37 37 37 37 37 36 36 36 36 36 36 36
31 32 32 32 32 32 32 32 31 31 31 31 31 31 31 31 31 31 31 31 30 30 29 29 29 28 28 28 28 29 29 29 29 29 29 29 29 30 30 31 31 32 33 33 33 34 34 34 34 33 33 33 33 33 33 33 33 34 34 35 35 35 35 36 36 37 37 37 37 38 38 37 37 37 37 37 36 36 36 36 36 36 36 36 36
31 32 32 32 32 32 32 32 32 32 32 32 32 32 31 31 31 32 32 32 31 31 31 30 30 29 29 29 29 29 29 29 30 30 30 30 31 31 31 31 31 32 32 32 33 33 34 34 34 34 34 34 33 33 33 33 33 33 34 34 34 35 35 36 36 37 37 38 37 37 37 37 37 37 37 36 36 36 36 36 36 35 35 35 36
31 32 32 33 33 33 33 33 33 33 32 32 32 32 32 32 32 32 32 32 32 32 31 31 31 30 30 30 29 30 30 30 30 30 30 31 31 31 32 32 32 32 32 32 32 33 33 33 33 33 33 33 33 33 33 33 33 33 33 34 35 36 36 37 37 37 37 37 37 37 37 36 36 36 36 36 36 36 36 36 35 35 35 36 36
32 32 32 33 33 33 33 33 33 33 33 33 33 33 33 32 32 32 32 32 32 32 32 32 31 31 31 30 30 30 30 30 30 30 31 31 31 31 32 32 32 33 33 33 33 32 32 32 32 32 31 31 31 31 31 31 31 32 32 33 34 35 35 35 35 35 35 36 36 36 36 36 36 36 36 36 36 36 36 36 36 36 36 37 37
32 32 33 33 33 33 32 33 33 33 33 33 33 33 33 32 32 31 31 32 32 32 33 32 32 32 31 31 30 30 30 30 30 30 30 31 31 31 32 32 32 32 33 33 33 32 32 31 31 31 31 31 31 31 31 31 32 32 32 33 33 33 32 32 32 33 33 34 34 34 35 35 35 35 35 35 36 36 36 36 36 36 37 37 38
31 32 32 32 33 33 33 33 33 33 32 32 32 32 32 32 32 32 32 32 32 33 33 33 33 32 32 31 31 31 31 31 31 31 31 31 31 31 31 32 32 32 32 32 32 31 31 31 30 30 30 30 30 31 31 32 32 33 33 33 33 32 32 32 33 33 33 34 34 34 34 35 35 35 35 35 35 35 36 36 36 37 37 37 38
29 30 30 31 32 32 33 33 32 32 32 31 31 31 31 31 32 32 32 32 33 33 33 33 33 32 32 31 31 31 31 31 31 31 31 31 31 31 31 31 32 32 32 32 31 30 30 30 30 30 30 30 30 31 31 32 32 32 32 32 32 31 31 32 32 32 33 33 33 33 33 34 34 34 34 35 35 35 36 36 37 37 37 37 38
Wind_Direction
214 215 216 216 216 217 216 216 216 216 217 218 217 217 217 217 217 217 217 218 219 219 220 221 221 223 224 225 226 228 229 230 229 229 230 232 234 235 235 235 237 239 241 243 245 247 249 250 250 251 253 256 258 260 262 264 267 269 272 275 277 276 278 281 286 295 304 311 316 320 325 329 333 335 336 336 338 341 344 346 347 347 348 348 349
216 216 217 217 217 218 218 218 217 217 218 219 219 218 218 218 219 219 219 220 221 221 222 223 224 225 226 226 227 229 231 232 232 232 233 234 235 237 237 237 238 239 241 244 246 246 248 250 251 251 253 257 260 262 263 263 265 267 267 268 271 273 275 280 285 291 299 307 311 314 319 325 327 330 333 334 335 337 339 341 343 344 345 345 345
218 218 218 218 218 218 219 219 219 219 219 220 220 220 220 220 220 221 221 222 223 224 225 225 225 226 227 228 228 229 231 232 232 233 234 236 237 238 238 238 239 239 240 242 244 245 248 251 252 252 253 258 261 261 260 261 263 263 261 261 265 269 273 278 281 285 292 299 305 309 315 320 321 324 328 329 330 331 332 332 333 336 338 339 339
220 220 219 219 219 219 220 220 221 221 220 220 221 221 221 222 223 223 224 224 225 226 227 228 228 229 230 230 229 230 231 232 233 234 235 236 237 238 239 240 240 241 241 243 244 246 247 250 253 253 254 257 260 260 259 261 262 261 260 262 265 269 272 275 278 280 285 293 300 305 310 314 316 319 323 324 326 327 327 327 328 331 333 334 334
221 221 221 220 220 220 220 221 221 222 222 221 221 222 223 224 225 225 226 227 227 228 229 230 230 231 232 232 232 232 233 234 235 236 237 237 238 238 240 241 243 244 245 245 246 247 248 250 251 252 253 256 259 260 261 263 264 264 264 267 269 271 272 274 278 280 283 289 296 301 306 309 312 315 319 321 322 323 324 325 327 328 330 331 332
222 222 222 222 221 221 221 222 222 223 224 223 223 223 225 226 226 226 227 228 229 230 230 231 231 232 233 234 234 235 235 236 237 238 239 239 239 240 242 243 245 246 247 248 248 249 250 251 253 253 253 255 258 259 261 263 266 267 266 266 267 268 270 273 277 281 285 289 294 298 302 306 309 311 314 318 320 320 320 322 323 326 327 328 330
223 223 224 223 223 223 223 224 224 224 225 225 225 225 226 227 228 228 228 229 230 230 231 232 233 233 234 235 236 237 238 238 239 239 239 240 241 243 243 245 247 249 250 250 250 251 252 253 255 256 256 257 258 259 261 263 265 265 264 264 265 267 271 274 277 280 285 290 294 297 300 302 305 307 310 314 316 316 317 318 319 322 324 325 326
224 224 225 225 224 224 224 225 225 225 226 226 226 226 227 228 229 229 230 231 232 232 232 233 234 235 236 237 238 239 239 240 241 241 241 242 243 245 246 247 248 250 252 252 252 252 253 255 257 257 258 258 258 259 260 262 264 264 264 265 267 269 272 275 277 280 285 289 293 296 298 300 302 305 308 312 313 314 315 315 316 318 320 320 321
224 224 225 225 225 225 225 226 226 226 227 227 227 227 228 228 229 230 231 232 233 233 234 235 236 237 238 239 240 240 240 241 242 242 243 244 244 246 247 248 249 250 252 253 253 253 253 255 256 257 258 258 258 259 260 261 263 265 266 267 269 270 273 275 277 279 283 287 291 294 297 298 300 303 305 308 310 311 312 313 314 315 316 316 317
223 223 224 224 224 225 225 226 227 227 227 227 227 227 228 229 230 231 232 233 233 234 235 236 237 238 239 240 241 241 242 242 242 243 244 245 246 247 248 249 250 251 252 253 254 254 254 255 256 257 258 259 260 261 262 262 263 264 266 267 268 270 273 274 276 278 281 284 288 292 295 296 298 300 301 304 306 308 310 311 312 313 314 314 314
223 223 223 223 223 224 225 226 227 228 228 227 227 227 227 228 230 232 233 233 234 235 236 237 238 240 241 241 242 243 243 244 244 245 246 247 248 248 249 249 251 252 253 254 254 255 256 256 256 257 258 259 260 262 263 264 264 264 266 267 268 270 272 273 275 276 279 282 286 289 292 294 296 298 299 301 303 305 307 308 309 311 312 312 312
222 223 222 222 223 224 225 226 227 229 230 229 227 227 227 228 230 233 234 234 236 237 238 239 240 241 242 242 243 244 244 245 245 246 247 247 248 248 249 250 251 252 252 253 254 255 256 257 257 258 258 258 259 260 262 263 264 265 267 267 269 270 271 272 273 275 277 281 284 287 289 291 294 296 297 298 301 303 304 305 306 308 309 309 309
222 223 222 222 223 225 227 228 228 229 230 230 228 227 226 228 230 233 234 235 236 237 238 239 239 240 241 242 243 244 244 245 245 246 247 247 248 248 250 251 252 252 252 252 253 255 256 257 257 258 259 258 258 259 261 263 265 266 268 269 270 270 271 271 272 275 277 279 282 284 286 289 292 293 295 297 299 300 302 303 304 304 305 306 306
222 223 222 222 224 226 228 228 228 229 230 231 231 229 227 227 229 231 233 234 234 235 237 238 239 239 240 241 243 244 245 245 245 246 247 247 247 248 250 252 253 253 253 252 252 253 254 255 257 259 259 259 259 260 261 263 265 267 268 270 270 271 271 272 273 275 277 278 280 282 284 287 288 291 293 295 297 298 299 300 301 302 302 303 304
224 224 223 223 224 227 229 228 228 229 231 232 234 233 230 228 228 230 233 234 234 234 235 237 239 240 241 241 242 244 245 246 247 248 248 248 248 249 251 252 253 254 254 253 252 253 254 255 257 259 260 261 261 261 262 263 264 266 268 270 272 273 274 274 275 276 277 278 280 282 284 285 286 288 291 293 294 295 297 298 299 300 300 301 303
223 224 224 224 225 227 229 229 229 231 233 234 236 237 235 232 230 232 234 236 236 236 237 239 241 242 242 243 243 244 245 247 248 249 250 250 251 251 251 252 253 254 254 254 253 254 255 255 257 258 260 262 263 263 264 265 265 266 268 270 272 273 274 275 276 277 278 279 280 281 283 285 285 286 289 291 292 293 295 297 298 299 301 302 304
222 224 224 224 225 225 226 227 230 232 234 235 236 238 239 236 234 235 236 238 239 240 241 243 244 244 244 245 245 245 246 247 248 249 250 251 252 252 252 252 254 254 254 254 254 255 255 255 255 256 259 261 262 263 265 266 267 268 268 269 270 271 272 274 275 277 278 279 280 281 283 284 285 286 288 289 290 291 294 296 297 299 300 301 303
221 222 222 222 223 224 225 228 230 233 235 236 237 239 239 238 237 238 239 241 242 244 245 246 246 246 246 247 247 248 249 249 249 249 250 251 252 252 252 253 253 254 254 254 255 256 255 255 255 256 257 259 261 263 265 266 268 269 269 269 269 269 271 272 274 276 277 278 279 281 283 284 286 286 288 289 290 291 293 295 297 298 299 300 301
219 219 221 224 226 228 230 232 234 236 238 239 240 241 240 239 240 240 240 242 244 246 248 248 249 249 249 250 250 250 250 250 250 251 252 252 252 253 253 254 254 254 254 254 255 256 256 256 256 255 255 257 260 262 265 266 267 269 270 270 270 270 271 271 272 273 275 276 278 279 281 283 284 285 287 288 290 292 293 295 296 297 298 299 299
217 218 222 226 228 229 231 234 237 239 241 242 243 243 243 242 242 242 242 243 245 247 249 250 251 251 251 251 251 251 252 252 252 253 253 253 253 254 254 255 255 254 254 254 255 256 256 256 256 255 253 255 258 260 262 264 266 268 269 269 270 270 270 270 270 271 273 275 276 278 279 281 283 285 286 287 289 291 292 294 295 296 298 298 299
219 219 221 222 224 227 230 235 240 241 242 244 245 245 244 244 243 244 245 245 247 248 250 251 252 252 252 252 252 252 253 254 254 254 254 254 255 255 255 255 256 256 256 256 255 255 256 256 256 254 252 254 256 257 258 261 264 266 267 267 268 268 269 268 269 269 270 271 273 276 279 281 282 283 284 284 286 289 291 293 294 295 296 297 298
231 231 230 228 227 227 228 233 240 241 242 243 245 245 245 244 245 245 246 247 249 249 249 250 251 251 252 252 252 253 254 254 255 255 255 255 256 257 257 258 258 258 258 258 257 256 255 255 254 252 251 253 254 254 256 260 264 265 266 267 268 269 268 267 266 266 266 268 271 275 279 282 283 282 282 283 285 287 290 292 293 294 295 296 298
240 241 239 236 234 232 231 235 240 242 244 246 248 250 251 249 249 250 249 249 250 250 249 250 250 250 250 251 252 252 253 254 254 255 256 257 258 259 259 260 260 259 258 257 257 255 254 253 251 249 248 250 252 253 256 260 262 263 265 267 268 269 267 265 263 261 263 267 271 275 279 282 283 283 283 284 286 287 289 290 292 292 293 295 296
245 245 244 242 240 239 238 240 243 245 248 252 254 254 254 253 252 251 250 250 249 248 249 249 248 248 248 249 250 251 252 253 254 256 257 258 259 261 262 263 263 261 258 256 256 255 252 249 248 246 246 249 252 253 254 256 258 260 262 264 265 265 265 263 261 260 262 266 270 274 277 281 283 285 285 286 286 287 288 289 290 291 292 293 294
249 250 250 249 247 245 245 246 248 250 252 255 257 256 254 253 252 251 251 250 249 249 250 249 248 248 248 249 251 252 252 254 255 258 260 261 262 264 265 265 266 264 260 257 257 256 252 249 247 245 244 247 249 249 251 254 256 257 259 260 260 260 260 260 260 261 262 265 268 271 275 279 282 284 285 286 286 286 287 287 288 290 291 291 293
253 254 255 254 252 251 250 251 252 253 254 256 257 257 257 257 257 257 256 254 253 253 253 252 253 253 252 251 252 253 255 256 258 259 261 262 263 265 267 267 268 266 261 257 255 254 252 249 246 242 239 241 244 247 252 255 255 256 258 258 257 258 258 259 261 261 262 263 266 269 273 277 280 282 284 285 286 286 286 286 287 288 289 290 291
256 256 256 256 254 252 253 254 256 257 258 258 259 259 260 261 263 263 263 260 256 255 255 256 258 258 257 255 254 254 256 258 259 259 260 261 263 265 266 268 268 264 257 252 250 249 249 246 241 235 235 238 245 250 254 255 255 256 257 256 256 257 259 260 261 261 262 262 264 267 272 277 280 283 285 287 287 287 287 287 288 289 290 290 291
259 258 257 257 255 254 255 258 260 261 263 263 263 262 261 261 262 263 262 260 257 255 255 255 256 257 258 257 255 255 256 258 258 258 259 261 263 265 265 265 262 256 252 250 249 247 246 244 241 240 241 244 249 253 254 254 255 255 253 253 254 256 258 259 261 262 263 264 266 269 273 277 281 284 286 287 288 288 288 289 289 291 291 291 292
260 260 258 257 257 256 257 260 262 264 265 266 266 264 261 260 259 259 259 258 256 254 254 253 253 253 254 255 256 257 258 258 258 258 259 261 262 263 263 261 259 255 253 253 252 250 249 249 248 248 248 248 250 251 251 251 252 252 252 253 254 255 256 258 261 263 265 267 270 272 275 278 281 283 285 286 287 288 288 289 290 291 292 293 294
260 260 259 258 258 258 259 261 263 264 265 266 266 265 263 261 259 258 257 257 255 253 252 252 253 253 253 254 257 258 258 259 260 259 260 261 261 261 262 261 259 257 255 254 252 251 251 252 251 250 249 248 249 249 249 249 249 250 251 253 254 256 258 260 263 265 268 271 273 275 277 279 281 283 283 284 284 286 287 289 290 291 292 293 294
259 260 260 260 260 259 260 261 263 264 264 264 265 264 263 262 261 259 258 257 256 254 252 253 255 257 258 258 259 259 259 260 262 262 263 263 262 261 261 260 259 258 257 254 252 252 252 252 251 250 249 249 249 249 248 248 248 249 250 253 256 259 261 263 265 268 270 273 275 276 278 279 280 281 281 282 283 284 285 286 288 289 291 291 292
258 259 260 261 260 260 261 262 263 263 264 264 264 263 262 261 260 259 258 257 257 256 255 255 256 258 260 262 262 261 260 261 261 262 263 263 262 261 260 259 258 257 255 254 253 253 253 252 251 250 250 250 250 249 249 249 249 250 252 255 258 261 263 265 267 268 270 272 274 275 277 278 279 280 281 281 282 283 284 286 287 288 289 290 290
258 259 260 261 261 261 261 262 263 264 264 264 263 263 262 260 258 257 257 257 257 257 257 258 259 259 260 261 262 261 260 260 260 260 260 259 259 258 258 258 257 256 254 253 252 253 253 252 252 252 251 251 250 249 250 251 252 254 256 258 260 262 264 265 266 268 269 271 273 275 277 278 278 279 280 281 282 283 284 286 287 287 288 289 289
260 260 260 261 261 261 261 262 262 263 263 262 262 262 261 260 258 256 255 255 256 256 258 260 261 261 260 260 260 259 258 258 257 257 256 256 256 256 256 256 256 256 254 252 251 252 252 252 253 253 253 252 250 250 251 252 254 256 258 260 261 263 264 265 266 267 269 271 273 275 276 277 278 279 280 280 281 283 284 286 287 287 288 289 289
261 260 260 260 260 260 260 260 261 262 262 261 261 260 259 258 257 256 255 255 255 255 257 259 261 261 260 260 260 258 257 256 256 256 256 256 255 255 255 254 254 254 253 252 252 252 252 253 253 253 252 252 251 251 253 254 255 257 258 260 261 263 264 265 266 267 269 271 273 275 276 277 278 279 280 280 282 283 284 286 286 287 288 289 290
262 261 261 261 260 260 259 260 260 261 261 261 261 260 259 258 256 255 255 254 254 254 256 257 259 260 260 260 260 259 258 256 256 256 257 257 257 256 255 253 253 253 252 252 252 251 251 252 252 251 251 251 252 253 254 255 257 258 259 260 262 263 264 264 265 267 269 272 274 275 276 277 278 279 280 281 283 284 285 286 287 288 289 290 290
262 262 261 261 261 261 260 260 260 261 261 261 261 260 260 259 258 256 254 254 254 254 255 256 257 259 259 259 259 259 258 258 257 257 258 258 257 256 254 253 252 251 251 251 251 250 250 251 251 251 251 252 253 254 255 256 257 258 259 261 262 262 263 264 266 268 270 272 274 275 276 277 278 279 280 282 283 284 285 286 287 288 290 290 290
263 262 262 262 262 262 261 261 261 261 260 260 260 259 260 260 259 258 256 255 255 255 256 256 256 257 259 259 259 259 259 259 259 258 258 257 256 254 253 253 252 251 250 250 250 251 251 252 253 253 253 253 254 255 256 257 258 259 260 261 262 263 264 265 267 270 271 273 274 275 276 278 279 279 280 281 282 284 285 286 287 288 289 289 289
263 263 263 263 263 261 260 260 261 260 260 260 259 258 259 259 259 258 257 257 257 258 258 258 257 258 258 258 258 259 259 260 259 258 257 256 255 254 253 253 253 252 252 251 251 252 252 253 253 253 254 254 256 257 258 259 260 261 262 263 263 265 266 268 270 271 273 274 274 275 276 278 279 279 280 281 282 283 284 285 286 286 287 287 287
262 262 262 262 262 261 260 260 260 260 260 260 259 258 258 258 258 258 257 257 257 258 258 258 259 259 259 259 259 259 259 259 259 258 257 256 255 254 254 254 254 254 253 253 253 253 253 253 254 254 255 256 257 258 259 260 261 262 263 264 265 266 268 269 270 271 273 273 274 275 276 277 278 279 280 281 282 283 284 284 285 285 285 286 286
262 261 260 260 260 260 259 260 260 259 259 259 259 258 258 258 257 257 256 256 256 257 257 257 258 259 260 260 260 260 260 259 258 257 256 255 254 255 255 255 255 255 256 256 255 255 255 255 255 256 257 258 258 259 260 260 261 262 264 265 265 266 268 269 270 272 273 274 275 276 277 279 280 281 282 282 283 283 284 284 284 285 285 285 285
262 261 261 260 260 259 258 258 258 258 258 258 258 258 258 257 257 256 256 256 256 256 257 257 257 258 259 259 259 260 260 259 258 256 256 255 255 255 255 255 255 256 257 257 257 257 257 257 257 258 259 259 260 260 261 261 262 263 264 265 266 268 269 271 272 273 274 275 277 278 279 280 281 282 282 283 283 283 284 284 284 284 284 285 285
261 261 260 260 260 259 258 257 257 257 257 257 257 257 257 257 256 256 255 256 256 256 257 257 257 258 258 258 258 258 258 258 257 257 256 256 256 256 257 256 256 256 257 258 258 258 258 258 259 260 261 261 261 262 262 263 264 264 265 267 268 269 271 272 273 275 276 277 278 279 280 281 281 282 282 282 283 283 284 284 284 285 285 285 285
261 260 260 259 259 259 258 257 256 256 256 256 256 256 256 256 255 255 255 255 256 256 257 257 257 257 258 258 258 258 258 257 257 258 258 257 257 257 257 257 257 257 257 258 259 260 260 260 261 261 262 263 264 264 264 264 265 266 266 267 269 270 271 273 274 275 277 277 278 279 280 281 281 281 282 282 283 283 284 284 285 285 285 285 285
261 261 260 259 258 258 258 257 256 256 256 256 257 257 256 256 255 254 254 254 254 255 256 257 257 258 258 258 258 258 258 258 258 258 259 258 258 258 258 258 258 258 258 259 259 260 260 261 261 262 262 263 264 264 265 265 266 267 268 269 270 271 273 274 275 277 278 278 279 280 280 281 281 281 282 282 283 283 284 284 284 285 285 284 284
261 261 261 260 258 257 256 256 256 255 256 257 257 257 257 256 255 254 254 253 253 254 255 256 256 257 258 258 259 259 259 259 259 259 259 259 259 259 259 259 259 259 260 260 260 259 260 260 261 262 263 263 264 264 265 266 267 267 269 270 271 273 274 275 277 278 278 279 279 279 280 280 281 281 282 282 282 283 283 283 284 284 285 284 285
261 261 261 260 258 256 256 256 255 254 255 256 256 256 256 256 256 255 254 253 253 254 254 255 256 257 257 258 259 259 259 259 259 259 259 260 260 260 260 261 261 261 262 262 262 262 261 261 262 263 263 264 265 265 266 267 268 268 269 271 272 274 275 276 277 278 278 278 279 279 279 279 280 281 281 281 281 282 282 283 283 284 285 285 285
262 261 261 260 258 257 256 255 255 254 254 254 254 254 254 255 255 254 254 253 253 254 254 255 256 257 257 258 259 259 259 259 259 259 260 260 261 262 262 263 263 263 264 265 265 265 264 263 263 263 264 264 265 265 266 267 268 269 271 272 274 275 277 277 278 278 278 279 279 279 279 279 280 280 281 281 281 281 282 282 283 284 285 285 286
263 262 260 259 258 257 256 256 255 255 255 255 254 254 254 254 253 253 253 253 253 254 254 255 255 256 257 258 258 258 259 259 260 260 261 261 262 263 264 264 265 265 266 266 267 266 265 263 263 263 263 263 263 264 265 266 267 269 271 273 274 275 275 276 277 278 278 279 279 279 279 279 280 280 280 281 281 281 282 282 283 284 285 286 286
263 262 261 260 258 257 257 256 255 255 255 254 254 255 254 253 252 252 253 253 253 254 254 254 255 256 256 257 258 259 260 260 260 261 262 262 263 264 265 266 267 267 267 267 267 266 264 263 263 263 263 263 263 264 265 266 268 269 271 272 272 273 274 275 277 278 279 279 279 279 279 280 280 280 281 281 281 282 282 283 283 284 285 286 287
264 263 262 261 259 258 257 256 254 253 253 253 254 254 254 253 253 252 252 253 253 253 254 254 255 255 256 257 257 258 259 260 261 262 263 264 264 265 266 267 267 267 267 267 266 265 263 262 262 263 264 264 265 265 266 268 269 271 272 272 272 273 275 276 277 279 280 280 280 280 280 280 280 280 281 281 281 282 282 283 283 284 285 286 287